FENGYUN 1C DEB, 31830

Orbit data source: Space-Track

FENGYUN 1C DEB, 31830 is space debris in SSO originally from a launch on Mon, 10 May 1999 UTC launched from the Taiyaun Space Center, China (TSC). Fengyun 1C debris stems from the Chinese weather satellite Fengyun-1C, which was intentionally destroyed by a Chinese anti-satellite missile in 2007. This event dramatically increased the amount of space debris, with thousands of trackable fragments posing hazards to satellites and human spaceflight. The Fengyun 1C debris cloud has become a focal point in discussions about space sustainability and the need for international regulations to prevent the creation of new debris.

Loading next visibility...
Identifier
31830, 1999-025CHU
Orbit
SSO
Country
Flag of CNCN / PRC
Related business
Manufacturer
Unknown
Mission
Spacecraft
Bus & Motor
Unknown
Mass
Unknown
Launch date (UTC)
1999-05-10 (26 years ago)
Launch vehicle
Unknown
Launch site
Taiyaun Space Center, China (TSC)
Object type
Payload
Rocket body
Debris
Shape & HBR
Unknown shape, 0.1 m
Radar Cross Section
Small (<0.1 m²)

Expand to show TLE details & history
Last TLE update: 1 day ago

TLE from 1 day ago
0 FENGYUN 1C DEB
1 31830U 99025CHU 25291.09144632  .00003378  00000-0  27369-2 0  9998
2 31830  99.1637  38.1998 0185220 104.8797  70.5175 13.83104236919706
Epoch: 2025-10-18T02:11Z
TLE epoch observation values (Epoch: 2025-10-18T02:11:40.962Z)
Latitude
2.45417°
Longitude
158.84575°
Altitude
912.422 km
Speed
7.418 km/s
True Right ascension
14h 34m 22s
True Declination
2° 26' 23"
Sunlit
Object was in daylight at epoch
Visualization orbit readout
Latitude
Unknown
Longitude
Unknown
Altitude
Unknown
Speed
Unknown
Apparent Right ascension
Unknown
Apparent Declination
Unknown
Sunlit
N/A
Visualization observer readout
Local Sidereal Time
21:16:51
Azimuth
Unknown
Elevation
Unknown
Doppler factor
Unknown
Orbital elements
Apogee altitude
1,085.86 km
Perigee altitude
814.392 km
Semi-major axis
7,328.263 km
Eccentricity
0.01852
Inclination
99.1637°
RAAN
38.1998°
Arg. of periapsis
104.8797°
True anomaly
72.53359°
Mean anomaly
70.5175°
Eccentric anomaly
71.52403°
Mean motion
3.45973 °/min
Orbital period
104.05 mins
BSTAR
0.0027369
Loading maneuver chart data...
Computing Atmospheric mass density...

Documentation

Showing up to 5 results
|